Regional Weather Roundup
Issued by NWS

Home | Current Version | Previous Version | Graphics & Text | Print | Product List | Glossary On
Versions: 1 2 3 4 5 6 7 8 9 10 11 12 13 14 15 16 17 18 19 20 21 22 23 24 25 26 27 28 29 30 31 32 33 34 35 36 37 38 39 40 41 42 43 44 45 46 47 48 49 50
000
ASUS45 KABQ 041410
RWRNM
NEW MEXICO REGIONAL WEATHER ROUNDUP
NATIONAL WEATHER SERVICE ALBUQUERQUE NM
700 AM MST SUN DEC 04 2016

NOTE: "FAIR" MEANS FEW OR NO CLOUDS BELOW 12,000 FEET AGL WITH NO
       SIGNIFICANT WEATHER OR OBSTRUCTIONS TO VISION.

      THIS PRODUCT IS RELEASED AS TWO VERSIONS.  ONE VERSION NEAR
      THE TOP OF THE HOUR CONTAINING PRELIMINARY DATA FROM ALBUQUERQUE
      AND OTHER STATIONS.  A FINAL VERSION WITH ADDITIONAL DATA IS
      ISSUED ABOUT 10 MINUTES AFTER THE HOUR.

NMZ501-503-504-510>518-041500-
NORTHWEST PLATEAU/NORTHCENTRAL MOUNTAINS

CITY           SKY/WX    TMP DP  RH WIND       PRES   REMARKS
FARMINGTON     FAIR      17  13  84 NE7       30.19R WCI   8
LOS ALAMOS     FAIR      27   7  42 CALM      30.14S
SANTA FE       FAIR      21  13  71 N21       30.12R WCI   5
TAOS           FAIR       9  -2  61 N8        30.16R WCI  -4
ANGEL FIRE     FAIR       1  -2  86 CALM      30.13R

$$
NMZ402-403-502-505>509-041500-
WESTCENTRAL MOUNTAINS/SOUTHWEST MOUNTAINS

CITY           SKY/WX    TMP DP  RH WIND       PRES   REMARKS
GALLUP         FAIR      12   8  84 CALM      30.18R
GRANTS         FAIR      15  11  85 NW8       30.19R WCI   4
SILVER CITY    FAIR      29  23  78 N8        30.09R WCI  21

$$
NMZ407-409-411-412-041500-
SOUTHERN DESERTS

CITY           SKY/WX    TMP DP  RH WIND       PRES   REMARKS
DEMING         FAIR      36  27  69 E8        30.09R WCI  30
LAS CRUCES     FAIR      36  19  51 N18       30.08R WCI  25
HOLLOMAN AFB   FAIR      29  19  65 NE9       30.11R WCI  21
T OR C         FAIR      32  20  61 N6        30.10R WCI  26

$$
NMZ519>523-041500-
CENTRAL VALLEYS/CENTRAL HIGHLANDS

CITY           SKY/WX    TMP DP  RH WIND       PRES   REMARKS
ALBUQUERQUE    FAIR      29  12  49 N7        30.15R WCI  22
DOUBLE EAGLE   CLEAR     25  10  54 NW9       30.14R WCI  15
MORIARTY ARPT  FAIR      20  13  75 E5        30.14R WCI  14
CLINES CORNERS FAIR      18  13  80 NW7       30.10S WCI   9
BELEN          FAIR      23  15  69 W6        30.18R WCI  16
SOCORRO        FAIR      27  18  69 N9        30.16R WCI  18

$$
NMZ524>526-539-540-041500-
SOUTHCENTRAL MOUNTAINS

CITY           SKY/WX    TMP DP  RH WIND       PRES   REMARKS
RUIDOSO        FAIR      25  19  80 W9        30.11R WCI  15

$$
NMZ527>531-041500-
NORTHEAST HIGHLANDS/NORTHEAST PLAINS

CITY           SKY/WX    TMP DP  RH WIND       PRES   REMARKS
LAS VEGAS      FAIR      21  10  62 SW3       30.09R
RATON          FAIR      11   7  84 N7        30.07R WCI   0
CLAYTON        FAIR      22  17  81 NW10      30.10R WCI  11

$$
NMZ532>537-041500-
EASTCENTRAL PLAINS

CITY           SKY/WX    TMP DP  RH WIND       PRES   REMARKS
TUCUMCARI      FAIR      23  21  92 W6        30.11R WCI  16
CANNON AFB     FAIR      28  28 100 N9        30.09R WCI  19
CLOVIS AIRPORT CLOUDY    30  28  93 N13       30.09R WCI  20

$$
NMZ028-029-538-041500-
SOUTHEAST PLAINS

CITY           SKY/WX    TMP DP  RH WIND       PRES   REMARKS
ROSWELL        FAIR      33  31  92 N7        30.11R WCI  27
ARTESIA        CLOUDY    34  34 100 N12       30.12R WCI  25
CARLSBAD       MOCLDY    32  32 100 N16       30.11R WCI  21
HOBBS          CLOUDY    37  37 100 N9        30.09R WCI  31


$$




USA.gov is the U.S. government's official web portal to all federal, state and local government web resources and services.